CAPE
1105 940 775 637 651 679 570 267 50 10 2 2 0 0 0 35 67 8 57 251 60 104 568 558 195 34 0 0 0 0 0 0 0 0 0 0 0 0 2 99 41 44 157
1216 1152 770 644 618 824 1090 604 243 89 13 3 0 0 8 40 174 263 390 370 142 76 235 554 276 0 0 0 0 0 0 0 0 8 143 12 0 0 0 1 0 56 101
1149 1112 915 733 738 777 1012 927 526 206 39 6 0 0 21 40 176 489 769 786 482 116 11 0 0 0 0 0 0 0 0 0 0 8 28 609 127 1 0 1 1 17 43
1216 949 1013 753 715 889 1049 983 618 387 140 23 7 4 41 53 202 502 766 764 337 44 0 0 0 0 0 0 0 0 4 64 64 101 360 816 284 64 27 13 87 33 179
1268 1370 1174 624 586 799 1002 956 670 516 317 82 48 48 41 83 219 257 351 240 73 0 0 0 0 0 0 0 0 1 84 97 33 53 254 12 244 198 110 64 519 368 119
931 1501 863 521 471 741 995 979 797 669 453 187 127 86 69 134 125 65 97 22 0 0 0 0 0 0 0 0 0 0 15 40 0 0 47 4 271 232 258 119 187 255 207
924 1552 800 440 340 550 910 1027 902 721 513 297 175 208 142 104 31 31 19 0 0 0 0 0 0 0 12 21 0 0 0 0 0 0 0 0 296 142 117 284 331 457 394
1698 1051 706 431 341 517 832 1015 989 828 668 479 355 380 221 73 8 4 0 0 6 0 0 0 0 0 1 7 5 0 0 0 0 0 0 0 4 10 2 189 514 611 766
1521 830 548 453 462 448 624 856 891 820 734 636 612 459 217 31 0 0 0 0 0 0 0 0 0 0 0 0 0 0 0 0 0 0 0 0 0 0 0 17 278 721 848
1059 796 493 376 366 337 439 564 689 721 749 690 589 376 70 0 0 0 0 0 0 0 0 0 0 0 0 0 0 0 0 0 0 0 0 0 0 0 0 0 0 230 896
955 692 378 171 108 68 185 293 319 470 511 412 217 37 0 0 0 0 0 2 0 0 0 0 0 0 0 0 0 0 0 0 0 0 2 15 5 1 0 0 0 61 455
908 635 395 198 131 48 2 195 23 12 14 1 0 0 0 0 0 0 1 0 3 0 0 0 0 0 0 0 0 0 0 0 0 0 0 54 47 36 39 20 60 101 375
582 566 351 349 270 167 137 179 15 99 33 13 0 11 0 0 0 0 80 15 0 3 0 0 0 0 0 0 0 0 0 14 0 0 0 61 76 103 214 422 604 790 719
597 600 543 913 582 550 545 632 85 179 76 68 35 86 103 0 0 0 3 62 80 40 0 0 26 54 25 7 48 26 12 0 0 0 30 75 51 22 118 662 1099 1327 1414
629 681 780 1097 1071 834 1606 769 521 243 384 348 226 123 107 180 0 54 53 36 184 128 78 160 97 170 245 112 119 139 95 72 75 36 14 115 29 29 81 632 1143 1589 1810
336 735 1454 1224 1507 1375 1256 1669 853 1074 799 820 887 739 436 744 895 590 744 576 642 845 476 298 249 306 346 493 799 854 801 762 692 594 335 241 292 146 125 371 812 1368 1914
299 5 1286 2164 2367 2067 1622 1734 1736 1067 1077 1306 861 1474 1290 1306 1495 1938 1400 1308 1005 1047 1128 943 1041 999 1275 1070 927 728 557 606 1017 1218 1120 845 612 539 274 385 361 856 1472
0 59 1913 1801 2574 2722 2834 2552 2029 1641 1957 1375 1674 1147 1884 1872 1344 1663 1486 1152 1047 860 1022 1014 934 1129 1046 1223 1269 1245 1193 1115 913 950 996 1221 1067 997 930 716 452 956 1225
0 0 279 529 1741 2727 2841 2927 2760 2540 2340 2275 1896 1703 1702 1797 2069 1684 1748 1173 1520 1577 1722 1664 1408 1313 1360 1635 1485 1032 1101 1244 438 0 872 1023 1209 1108 1134 1331 1035 1093 1419
0 0 0 101 135 2419 2752 2395 2262 2393 2198 2469 1875 2004 1616 1748 1879 1862 1754 1563 1236 1284 1732 1269 1152 1342 1458 1496 1551 1088 529 735 1237 997 934 1630 1714 1474 1476 1477 1400 1547 1625
0 0 0 0 20 721 976 2407 2072 1559 1996 1902 1935 1982 1666 1847 1964 1865 1663 1621 1544 1452 1721 2011 1668 1777 1337 930 1162 926 989 1018 859 968 1021 1221 1284 1404 1893 1799 1669 1744 2070
0 0 0 0 1 400 726 823 1092 1630 1170 1622 1594 1809 1674 1667 12 1284 1134 644 1413 1635 1438 1705 1392 1137 1336 1682 858 1036 617 450 581 539 305 1028 145 942 1352 1150 1247 2048 2300
2 0 0 20 13 63 1379 1066 1322 1095 1643 1518 1689 2079 2023 1212 1539 1620 1469 1426 1771 1802 1430 1573 1848 1259 1660 1329 735 488 539 269 452 549 529 325 564 482 477 665 1059 1473 1617
39 12 7 4 176 79 835 997 1643 1404 1126 1596 1206 1995 2112 2090 1977 2224 1738 1806 1880 2034 1650 1327 1519 1757 1385 771 706 581 458 608 436 238 382 503 261 254 392 400 781 1240 1485
292 422 409 354 720 866 1578 1387 1675 1709 1691 1615 1471 2142 2518 2367 2235 2030 1967 1788 2082 2055 1466 1131 693 802 684 880 599 384 153 159 183 169 123 182 323 266 425 283 47 197 387
323 647 761 867 1016 1020 951 1161 1262 1567 1820 2022 1589 1574 1470 1518 1668 1832 1626 1599 1582 1287 872 509 496 478 543 472 377 262 133 42 13 8 9 7 0 0 0 3 99 54 80
CIN
-335 -433 -457 -439 -396 -354 -339 -392 -507 -564 -378 -231 0 0 0 -402 -361 -456 -360 -164 -375 -282 -63 -55 -139 -348 0 0 0 0 0 0 0 0 0 0 0 0 -143 -113 -155 -177 -67
-368 -428 -454 -443 -414 -331 -248 -317 -396 -473 -575 -345 0 0 -478 -382 -267 -193 -123 -115 -238 -296 -133 -62 -102 -37 0 0 0 0 0 0 0 -33 -114 -172 0 0 0 -24 -29 -227 -182
-382 -432 -434 -429 -396 -355 -271 -259 -325 -414 -515 -560 0 0 -426 -386 -271 -108 -48 -50 -99 -248 -406 0 0 0 0 0 0 0 0 0 0 -28 -200 -37 -118 -29 0 -82 -33 -293 -275
-389 -453 -436 -455 -420 -361 -295 -265 -316 -348 -424 -525 -563 -526 -408 -377 -251 -121 -47 -48 -131 -342 0 0 0 0 0 0 0 0 -43 -158 -155 -153 -112 -13 -43 -175 -234 -300 -245 -323 -228
-372 -366 -425 -478 -444 -373 -313 -286 -300 -300 -329 -426 -448 -430 -411 -347 -234 -197 -141 -162 -286 0 0 0 0 0 0 0 0 -14 -201 -200 -211 -180 -112 -153 -115 -155 -189 -251 -127 -175 -298
-350 -338 -481 -492 -471 -391 -324 -292 -296 -269 -284 -364 -380 -376 -370 -306 -292 -319 -257 -379 0 0 0 0 0 0 0 0 0 0 -290 -255 -8 -7 -58 -206 -129 -152 -165 -237 -234 -233 -275
-308 -352 -489 -513 -495 -409 -338 -289 -276 -273 -284 -325 -352 -309 -314 -322 -384 -381 -387 0 0 0 0 0 0 0 -279 -293 0 0 0 0 0 0 0 0 -154 -195 -233 -204 -210 -206 -222
-273 -421 -499 -530 -505 -418 -341 -279 -265 -275 -269 -277 -287 -258 -282 -334 -441 -452 0 0 -321 0 0 0 0 0 -67 -159 -164 0 0 0 0 0 0 0 -161 -154 -181 -251 -200 -193 -160
-301 -422 -509 -513 -492 -444 -370 -284 -266 -267 -252 -240 -207 -237 -275 -376 0 0 0 0 0 0 0 0 0 0 0 0 0 0 0 0 0 0 0 0 0 0 0 -363 -281 -196 -173
-275 -396 -480 -524 -515 -482 -428 -356 -295 -276 -246 -226 -219 -252 -346 0 0 0 0 0 0 0 0 0 0 0 0 0 0 0 0 0 0 0 0 0 0 0 0 0 0 -328 -184
-200 -319 -407 -508 -563 -551 -478 -430 -397 -333 -299 -293 -332 -385 0 0 0 0 0 -39 0 0 0 0 0 0 0 0 0 0 0 0 0 0 -117 -299 -94 -252 0 0 0 -428 -270
-105 -217 -299 -401 -466 -488 -212 -431 -495 -244 -519 -131 0 0 0 0 0 0 -34 0 -109 0 0 0 0 0 0 0 0 0 0 0 0 0 0 -225 -258 -326 -381 -243 -407 -402 -292
-63 -139 -242 -291 -350 -342 -329 -389 -261 -376 -396 -397 0 -337 0 0 0 0 -154 -214 0 -273 0 0 0 0 0 0 0 0 0 -225 0 0 0 -223 -227 -257 -254 -229 -217 -218 -243
-53 -75 -164 -175 -230 -202 -190 -224 -350 -295 -325 -319 -325 -260 -223 0 0 0 -39 -164 -160 -198 0 0 -246 -215 -260 -103 -164 -194 -236 0 0 0 -108 -222 -275 -300 -279 -180 -156 -159 -166
-18 -39 -100 -122 -136 -145 -54 -136 -190 -200 -195 -197 -218 -212 -196 -157 0 -121 -111 -134 -99 -78 -125 -89 -129 -96 -102 -129 -128 -132 -154 -163 -161 -182 -186 -182 -269 -261 -249 -156 -139 -124 -122
-59 -46 -41 -96 -121 -111 -92 -60 -87 -66 -56 -65 -70 -129 -157 -89 -42 -45 -28 -22 -8 -7 -18 -44 -57 -48 -48 -37 -21 -29 -34 -44 -62 -69 -122 -121 -157 -227 -243 -182 -134 -123 -108
-208 -80 -19 -40 -86 -101 -96 -69 -74 -82 -54 -13 -37 -4 -76 -50 -10 -1 -1 -4 -3 -4 -5 -6 -10 -10 -4 -4 -10 -26 -40 -36 -12 -25 -43 -74 -63 -117 -171 -163 -168 -130 -109
0 -80 -18 -8 -42 -68 -53 -63 -57 -62 -19 -44 -5 -9 -13 -27 -21 -4 -6 -8 -6 -29 -4 -6 -8 -5 -5 -7 -10 -10 -9 -8 -15 -15 -6 -16 -38 -16 -39 -95 -122 -79 -79
0 0 -14 -26 -11 -44 -52 -39 -33 -30 -21 -2 -3 -6 -9 -10 -8 -9 -7 -25 -9 -10 -7 -4 -4 -3 -5 -7 -4 -5 -8 -21 -37 0 -18 -6 -5 -20 -24 -18 -39 -51 -46
0 0 0 -18 -65 -24 -31 -53 -39 -21 -23 -1 -4 -7 -8 -14 -19 -16 -6 -6 -16 -13 -5 -12 -10 -6 -7 -14 -8 -8 -23 -23 -30 -43 -13 -9 -8 -10 -11 -10 -18 -35 -45
0 0 0 0 -101 -60 -24 -27 -50 -57 -22 -15 -3 -6 -10 -10 -12 -19 -9 -22 -37 -6 -1 -7 -10 -9 -19 -14 -4 -5 -5 -7 -13 -25 -26 -29 -23 -6 -7 -9 -10 -12 -12
0 0 0 0 -46 -83 -74 -61 -31 -29 -37 -7 -6 -7 -7 -28 -27 -3 -33 -77 -19 -3 -8 -9 -18 -21 -24 -5 -5 -1 -8 -41 -27 -31 -35 -22 -292 -38 -7 -6 -5 -8 -10
-25 0 0 -129 -180 -143 -54 -56 -33 -19 -14 -10 -3 -8 -21 -58 -14 -3 -18 -35 -3 -4 -11 -17 -16 -32 -22 -33 -43 -31 -15 -29 -22 -55 -44 -70 -67 -61 -53 -23 -7 -10 -13
-94 -136 -167 -218 -140 -158 -91 -65 -9 -18 -34 -20 -20 -6 -23 -31 -20 -10 -12 -9 -3 -4 -12 -14 -20 -7 -42 -78 -65 -55 -26 -4 -16 -59 -90 -75 -95 -101 -61 -39 -21 -11 -8
-57 -89 -124 -135 -100 -80 -35 -43 -16 -7 -1 -5 -12 -14 -21 -35 -5 -12 -8 -3 -7 -9 -10 -11 -27 -40 -56 -47 -72 -83 -105 -67 -48 -22 -31 -107 -37 -52 -12 -23 -84 -38 -19
-25 -48 -63 -72 -69 -80 -88 -54 -51 -20 -14 -9 -24 -16 -36 -35 -25 -10 -3 -15 -8 -17 -27 -35 -43 -59 -80 -81 -104 -120 -136 -155 -92 -114 -115 -73 0 0 0 -78 -53 -90 -46
Wind_Speed
19 26 26 26 26 25 25 24 23 23 23 23 23 23 24 24 24 24 24 25 25 25 24 23 23 23 23 23 24 24 25 26 26 26 27 28 28 27 26 27 29 27 27
22 24 25 24 23 23 23 23 23 22 22 22 22 23 23 23 23 23 23 23 22 22 22 22 21 21 22 22 22 23 24 23 23 23 23 23 25 27 26 25 26 25 25
17 19 22 22 22 21 22 22 22 22 22 22 22 21 22 22 21 21 20 21 20 20 20 20 20 20 20 20 21 21 22 21 20 19 19 16 20 24 25 24 24 24 24
14 15 17 19 20 20 21 21 21 21 21 20 20 20 20 20 19 19 19 18 18 18 18 18 18 18 19 19 19 19 19 19 17 16 15 13 18 21 23 23 23 22 21
14 14 15 18 18 18 19 19 19 20 20 19 18 19 18 18 18 17 16 16 16 16 16 17 16 17 17 17 17 17 17 16 15 15 12 20 18 19 20 20 20 20 21
17 12 13 15 15 15 17 17 18 17 18 18 18 17 16 16 16 15 15 14 14 14 15 15 15 15 15 15 15 15 14 14 12 10 13 19 18 17 17 17 18 19 19
15 12 13 13 13 13 14 15 17 17 17 17 16 16 15 14 14 13 13 12 12 13 13 13 13 13 13 13 13 13 13 12 12 9 13 16 15 15 16 15 15 16 16
12 12 12 12 13 13 12 13 15 16 15 15 14 13 13 12 12 11 11 11 11 11 11 11 11 11 11 11 11 11 12 12 11 7 6 11 12 13 13 12 12 13 14
11 13 12 12 11 13 14 13 13 13 13 12 12 11 11 10 10 9 9 9 8 9 9 9 10 10 10 10 9 10 10 10 10 7 5 9 10 11 11 10 10 10 10
8 11 11 11 11 11 12 12 12 11 10 10 9 9 9 8 8 8 7 6 6 7 7 7 8 8 8 8 8 8 8 9 8 7 4 8 9 10 9 7 9 9 8
5 6 8 8 8 9 8 9 9 9 8 8 7 7 7 7 6 6 4 4 4 5 6 6 7 8 8 7 6 5 7 7 4 3 9 11 10 12 10 6 6 7 7
3 3 5 6 6 8 7 8 7 6 6 6 6 6 5 5 4 3 2 2 3 4 5 6 6 8 8 9 7 3 6 6 3 7 9 7 9 12 10 7 5 5 5
4 3 5 5 7 6 5 6 4 5 5 5 4 4 3 3 2 2 6 4 5 5 7 6 6 6 6 5 7 5 4 4 5 11 12 8 10 11 9 6 5 4 5
6 5 5 4 4 3 4 4 4 3 4 4 3 2 4 3 6 4 5 4 4 6 5 6 5 4 4 4 9 12 14 16 14 14 14 9 10 10 10 8 6 6 7
7 8 7 4 2 2 4 2 2 3 3 4 2 2 4 6 6 6 6 6 5 5 4 4 4 7 5 8 9 8 8 9 12 15 18 14 12 9 10 8 8 5 7
20 18 5 4 2 2 4 7 5 6 6 6 6 5 4 6 7 7 7 9 11 10 7 4 6 6 6 9 10 8 10 12 16 17 17 16 11 10 10 10 8 6 6
22 19 33 1 2 3 6 10 11 9 12 11 10 10 7 7 8 9 8 7 7 8 10 13 16 16 16 19 19 15 16 18 19 19 17 17 18 12 12 11 9 8 8
19 23 19 1 3 4 7 9 12 14 14 14 15 13 9 8 8 10 11 11 10 9 10 10 11 13 14 12 13 15 15 17 20 24 20 17 17 20 18 12 11 11 11
12 17 13 10 7 7 8 11 13 15 17 18 16 16 11 10 10 11 11 10 10 11 12 11 12 12 14 19 23 24 24 23 24 21 17 20 17 18 19 20 16 12 12
24 23 19 18 15 11 12 13 16 17 18 19 18 16 14 11 10 11 10 9 10 10 9 13 13 15 21 25 26 25 28 24 17 15 19 17 19 21 20 20 16 14 12
26 23 23 22 22 19 16 15 17 19 19 17 17 16 13 11 15 7 7 9 20 9 9 14 16 21 21 23 22 21 21 24 22 19 17 17 23 29 21 13 11 13 15
31 32 29 29 26 25 21 20 20 18 17 16 15 13 12 13 29 10 8 20 13 9 10 15 18 20 21 19 20 22 25 26 24 25 28 28 22 7 15 21 21 16 16
29 28 28 27 27 26 23 20 20 23 22 20 16 15 12 10 8 11 11 12 18 13 13 13 14 15 16 20 22 21 25 27 29 30 34 35 32 26 27 35 31 22 19
24 23 24 25 24 22 20 21 22 20 21 19 20 16 12 12 12 15 15 15 16 17 16 16 14 14 15 19 19 19 21 26 30 35 31 31 34 34 32 33 34 31 22
20 21 22 22 21 19 20 20 23 25 22 21 25 18 14 14 18 17 16 16 18 17 18 17 15 16 17 19 22 25 27 29 29 31 37 39 33 33 31 30 33 32 35
18 18 19 19 20 20 20 21 22 24 25 25 25 19 18 17 18 18 17 17 16 18 19 18 19 21 22 24 26 26 28 29 32 34 36 37 41 40 37 38 33 33 35
Wind_Direction
83 102 99 97 97 101 100 96 93 90 87 82 79 75 72 74 79 80 81 82 80 79 72 72 69 64 62 57 54 53 51 56 58 60 59 59 57 54 51 47 39 50 47
95 103 101 96 92 94 100 100 97 96 93 88 84 81 82 81 83 84 84 81 77 73 70 68 63 60 60 57 55 55 57 60 64 65 67 67 66 58 55 53 50 54 54
93 96 99 96 92 91 97 102 102 101 100 96 93 86 85 83 84 85 81 78 74 69 67 65 63 62 61 60 58 57 58 63 70 74 72 81 69 57 55 56 56 59 58
90 94 94 95 91 90 95 100 102 103 102 98 93 90 87 84 88 89 83 76 70 66 63 64 64 62 58 56 57 59 60 64 73 73 73 77 72 58 58 59 62 63 64
92 94 96 97 90 87 90 95 99 102 103 99 95 92 87 85 90 89 84 74 66 63 65 66 63 59 55 55 57 56 58 63 73 67 79 49 65 62 61 61 65 63 64
102 90 97 94 87 84 87 93 98 99 103 103 103 95 88 88 91 91 85 75 66 64 68 67 60 55 52 51 52 55 59 61 62 73 61 48 52 62 59 61 63 59 60
100 91 99 93 89 84 84 91 101 104 104 105 101 96 92 90 92 92 85 77 70 71 70 65 58 52 49 50 53 54 56 53 54 68 61 48 57 59 58 60 64 57 57
91 94 98 95 92 90 85 93 101 104 105 103 101 94 91 89 91 89 85 78 74 72 68 58 53 51 48 45 50 50 47 44 47 69 70 51 56 51 51 59 62 57 56
88 99 100 99 90 95 98 95 98 101 102 100 97 90 89 89 90 89 83 75 67 67 56 51 47 45 43 41 45 43 43 43 42 51 84 46 49 45 47 56 57 59 55
89 96 102 99 99 94 94 98 98 96 93 89 87 87 90 88 91 87 77 66 61 51 44 39 40 40 36 39 39 36 34 32 38 72 94 38 41 34 39 61 44 48 59
101 94 107 109 106 101 90 95 90 85 79 75 75 80 82 80 84 81 70 58 46 30 20 20 19 16 14 20 23 31 26 21 63 62 29 33 27 18 23 45 45 45 55
146 127 128 121 115 111 95 96 85 73 58 64 68 78 81 89 84 79 78 50 16 359 353 352 355 354 359 359 6 8 16 33 46 16 9 22 16 13 19 35 40 38 36
202 193 159 149 129 122 95 87 62 47 36 42 66 67 67 37 27 27 0 358 347 334 334 336 340 343 345 352 355 4 6 6 0 356 3 10 3 4 4 8 9 9 6
213 221 184 172 156 151 103 77 65 34 33 20 29 42 10 338 341 344 349 342 345 348 333 331 331 337 343 342 342 338 335 337 341 346 346 351 349 354 352 341 337 338 346
245 217 217 200 206 230 323 58 44 7 351 358 359 343 329 333 326 330 326 329 327 342 0 351 341 337 336 340 336 333 326 330 333 333 331 330 328 332 341 333 323 313 328
274 286 195 170 176 268 294 323 325 329 324 328 321 311 298 313 315 319 317 314 321 329 332 321 338 338 333 335 336 326 327 330 328 330 328 326 315 314 322 324 314 296 300
299 279 233 194 224 278 288 303 319 313 312 318 310 309 285 292 298 313 311 310 312 314 320 326 329 335 335 327 324 327 327 324 325 323 323 322 322 308 309 309 310 305 299
287 213 147 258 252 269 296 310 308 308 312 305 310 301 288 282 287 294 300 306 312 313 318 321 320 325 326 325 321 321 326 327 324 320 321 315 315 321 320 312 312 312 307
269 286 303 305 290 266 294 307 306 306 304 304 300 300 285 281 285 282 294 284 303 310 315 317 319 321 322 324 319 323 324 326 328 329 318 322 318 318 319 320 315 305 307
288 284 293 307 295 299 296 303 306 303 303 302 300 296 287 273 274 283 277 290 292 301 300 316 312 318 321 320 319 323 322 326 330 325 321 322 323 323 321 319 319 315 302
295 300 297 293 298 296 300 299 301 301 301 302 301 299 284 276 261 276 276 283 287 287 302 318 323 322 322 324 323 324 327 329 330 329 321 323 328 324 331 321 322 324 321
293 293 294 294 293 294 291 293 297 298 302 301 304 295 293 299 309 285 258 297 270 271 297 309 314 316 318 323 327 323 322 326 328 334 333 337 343 263 326 330 330 325 323
295 297 298 297 294 290 289 293 293 295 304 307 304 302 297 293 261 278 279 283 296 292 307 309 314 315 315 318 316 322 322 319 320 321 319 320 327 332 329 323 324 326 319
301 307 306 302 302 296 290 287 296 295 293 300 304 294 283 291 299 301 296 297 290 301 301 305 306 311 314 315 317 318 317 318 317 315 319 321 323 326 328 329 324 321 316
312 314 312 309 312 309 306 297 297 302 298 304 309 309 303 305 303 302 298 294 297 291 304 301 303 300 305 308 312 313 313 314 316 317 314 313 320 322 324 323 323 319 316
322 327 325 323 319 318 313 309 304 300 304 301 303 310 306 304 303 302 300 290 289 296 297 301 298 302 303 304 306 307 308 309 310 312 312 314 311 312 316 315 318 321 318